Погода в Фощеватове

Россия / Белгородская область     50°25′28″N   38°03′45″E
темп.,
°C
ветер,
м/с
пор.,
м/с
влажн.,
%
обл.,
%
осадки,
мм/ч
давл.,
гПа
погр.,
м
13 мая, чт
чт1300:00+7вюв37926 0.0 1016144
03:00+8юв61195100 1.5 1015399
06:00+9юв4799100 4.9 1014253
09:00+12ююв4690100 5.2 1014513
12:00+16ю577395 0.3 10141237
15:00+18ю576523 0.6 10141568
18:00+18ююв367282 0.1 1014460
21:00+13юв2286100 0.1 101520
14 мая, пт
пт1400:00+13в228946 0.0 101527
03:00+12вюв3391100 0.0 101528
06:00+13в3993100 0.0 1014179
09:00+18вюв61177100 0.0 1013513
12:00+21юв6868100 0.0 1013800
15:00+20в4777100 0.3 1012332
18:00+20ююв31081100 0.0 1011351
21:00+19вюв5137996 0.0 1010270
15 мая, сб
сб1500:00+17ююв4109193 0.0 1010193
03:00+15ююз229480 0.0 101019
06:00+15юз358791 0.0 101196
09:00+18юз46731 0.0 1012439
12:00+22юз57550 0.0 10131202
15:00+22юз5755100 0.0 10131668
18:00+21юз36666 0.0 1013304
21:00+16зсз2280100 0.0 101411
16 мая, вс
вс1600:00+15в2274100 0.0 101411
03:00+14всв1181100 0.0 101511
06:00+14всв22835 0.0 101544
09:00+20в346796 0.0 1015426
12:00+23всв3354100 0.0 10141269
15:00+23св4555100 0.0 10131371
18:00+22ссв487276 0.0 1012364
21:00+17св4108610 0.1 1012180
17 мая, пн
пн1700:00+15св499261 0.0 1011140
03:00+15всв410856 0.0 1010165
06:00+15в498257 0.0 1010173
09:00+21вюв6116234 0.0 1010440
12:00+25вюв711536 0.0 1009816
15:00+26вюв712535 0.0 10091915
18:00+23вюв512635 0.0 1008408
21:00+18вюв410755 0.0 1009159